Location: Bovenkerk
(52.2915°N, 4.8336°E)
Time: 06:17:34
(UTC+00:00)

Cosmos 1825 - Pass Details

Date: 09 April 2020
Orbit: 502 x 509 km, 82.5° (Epoch: 02 June)

Event Time Altitude Azimuth Distance (km) Brightness Sun altitude
Rises 19:59:08 0° 359° (N) 2,633 6.3 -13.4°
Reaches altitude 10° 20:01:40 10° 16° (NNE) 1,740 5.1 -13.7°
Maximum altitude 20:04:38 21° 67° (ENE) 1,188 3.7 -14.1°
Enters shadow 20:05:32 19° 87° (E) 1,247 3.7 -14.2°
